星链-2271 (STARLINK-2271 )

导读 | 豆包AI

STARLINK-2271是美国太空探索技术公司星链星座的卫星,于2021年3月24日发射入轨,归属星链互联网卫星网络,承担低轨互联网通信任务。星链项目旨在构建全球覆盖的卫星互联网,该星随批次组网升空,助力拓展全球宽带网络覆盖范围,为偏远区域等提供网络接入服务。

Basic Information
目录编号:
48008
目录名称:
STARLINK-2271
国际标识:
2021-024AH
轨道中心:
EARTH
卫星名称:
星链-2271
卫星全名:
星链-2271 (STARLINK-2271 )
卫星状态:
已陨落 最后检测时间 2025-05-12
发射日期:
2021-03-24 UTC
国别 :
美国 (US)
星等 :
--
Orbit Information
数据来源 国际轨道数据
星历时间: 2025-05-12T04:00:32+0800
轨道信息已过期306天
半长轴: 6533.05km
偏心率: 0.0005873
轨道倾角: 53.026°
近地点辐角 263.343°
升交点赤经 119.584°
平近点角 164.709°
近地点: 151.078km
远地点: 158.752km
周期: 87.586分钟
每日圈数: 16.441023
Detailed Information
固有亮度:
5
最大亮度:
2.5
卫星平台:
Starlink V1.0
覆盖范围:
全球
运营商:
太空探索技术公司
运营商所在国:
美国
制造商(研发单位):
太空探索技术公司
制造商所在国:
美国
使用方式:
暂无
Satellite Introduction
星链(Starlink)计划是由太空探索技术公司(SpaceX)提出的一个巨型低轨卫星互联网星座项目,计划在2019年至2024年间在太空搭建由约1.2万颗卫星组成的“星链”网络,其中1584颗将部署在地球上空550千米处的近地轨道,并从2020年开始工作。该卫星仍在工作。